Year,Month,Day,Hour,Minute,Value (Times are PST for temperature in C)
2018,05,26,09,33,13.30
2018,05,26,09,34,13.30
2018,05,26,09,35,13.20
2018,05,26,09,36,13.20
2018,05,26,09,37,13.10
2018,05,26,09,38,13.00
2018,05,26,09,39,12.90
2018,05,26,09,40,12.90
2018,05,26,09,41,12.80
2018,05,26,09,42,12.70
2018,05,26,09,43,12.70
2018,05,26,09,44,12.70
2018,05,26,09,45,12.70
2018,05,26,09,46,12.60
2018,05,26,09,47,12.60
2018,05,26,09,48,12.60
2018,05,26,09,49,12.50
2018,05,26,09,50,12.50
2018,05,26,09,51,12.60
2018,05,26,09,52,12.60
2018,05,26,09,53,12.60
2018,05,26,09,54,12.60
2018,05,26,09,55,12.50
2018,05,26,09,56,12.50
2018,05,26,09,57,12.50
2018,05,26,09,58,12.50
2018,05,26,09,59,12.60
2018,05,26,10,00,12.70
2018,05,26,10,01,12.70
2018,05,26,10,02,12.70
2018,05,26,10,03,12.80
2018,05,26,10,04,12.90
2018,05,26,10,05,12.90
2018,05,26,10,06,13.00
2018,05,26,10,07,13.00
2018,05,26,10,08,13.10
2018,05,26,10,09,13.20
2018,05,26,10,10,13.20
2018,05,26,10,11,13.20
2018,05,26,10,12,13.20
2018,05,26,10,13,13.20
2018,05,26,10,14,13.10
2018,05,26,10,15,13.10
2018,05,26,10,16,13.10
2018,05,26,10,17,13.10
2018,05,26,10,18,13.10
2018,05,26,10,19,13.10
2018,05,26,10,20,13.20
2018,05,26,10,21,13.10
2018,05,26,10,22,13.00
2018,05,26,10,23,13.00
2018,05,26,10,24,12.90
2018,05,26,10,25,13.00
2018,05,26,10,26,13.00
2018,05,26,10,27,13.00
2018,05,26,10,28,13.10
2018,05,26,10,29,13.10
2018,05,26,10,30,13.10
2018,05,26,10,31,13.10
2018,05,26,10,32,13.20
2018,05,26,10,33,13.20
2018,05,26,10,34,13.30
2018,05,26,10,35,13.30
2018,05,26,10,36,13.30
2018,05,26,10,37,13.30
2018,05,26,10,38,13.30
2018,05,26,10,39,13.20
2018,05,26,10,40,13.30
2018,05,26,10,41,13.30
2018,05,26,10,42,13.30
2018,05,26,10,43,13.40
2018,05,26,10,44,13.40
2018,05,26,10,45,13.50
2018,05,26,10,46,13.50
2018,05,26,10,47,13.40
2018,05,26,10,48,13.40
2018,05,26,10,49,13.30
2018,05,26,10,50,13.30
2018,05,26,10,51,13.20
2018,05,26,10,52,13.30
2018,05,26,10,53,13.30
2018,05,26,10,54,13.30
2018,05,26,10,55,13.20
2018,05,26,10,56,13.10
2018,05,26,10,57,13.10
2018,05,26,10,58,13.00
2018,05,26,10,59,12.90
2018,05,26,11,00,13.00
2018,05,26,11,01,13.10
2018,05,26,11,02,13.10
2018,05,26,11,03,13.20
2018,05,26,11,04,13.20
2018,05,26,11,05,13.20
2018,05,26,11,06,13.30
2018,05,26,11,07,13.40
2018,05,26,11,08,13.40
2018,05,26,11,09,13.50
2018,05,26,11,10,13.40
2018,05,26,11,11,13.40
2018,05,26,11,12,13.40
2018,05,26,11,13,13.40
2018,05,26,11,14,13.40
2018,05,26,11,15,13.40
2018,05,26,11,16,13.40
2018,05,26,11,17,13.30
2018,05,26,11,18,13.30
2018,05,26,11,19,13.40
2018,05,26,11,20,13.40
2018,05,26,11,21,13.40
2018,05,26,11,22,13.40
2018,05,26,11,23,13.40
2018,05,26,11,24,13.50
2018,05,26,11,25,13.50
2018,05,26,11,26,13.50
2018,05,26,11,27,13.60
2018,05,26,11,28,13.70
2018,05,26,11,29,13.70
2018,05,26,11,30,13.80
2018,05,26,11,31,13.70
2018,05,26,11,32,13.70
2018,05,26,11,33,13.80
2018,05,26,11,34,13.70
2018,05,26,11,35,13.70
2018,05,26,11,36,13.80
2018,05,26,11,37,13.70
2018,05,26,11,38,13.70
2018,05,26,11,39,13.70
2018,05,26,11,40,13.70
2018,05,26,11,41,13.70
2018,05,26,11,42,13.70
2018,05,26,11,43,13.70
2018,05,26,11,44,13.70
2018,05,26,11,45,13.70
2018,05,26,11,46,13.70
2018,05,26,11,47,13.70
2018,05,26,11,48,13.70
2018,05,26,11,49,13.70
2018,05,26,11,50,13.70
2018,05,26,11,51,13.70
2018,05,26,11,52,13.70
2018,05,26,11,53,13.70
2018,05,26,11,54,13.60
2018,05,26,11,55,13.60
2018,05,26,11,56,13.60
2018,05,26,11,57,13.50
2018,05,26,11,58,13.60
2018,05,26,11,59,13.60
2018,05,26,12,00,13.60
2018,05,26,12,01,13.60
2018,05,26,12,02,13.70
2018,05,26,12,03,13.70
2018,05,26,12,04,13.60
2018,05,26,12,05,13.60
2018,05,26,12,06,13.50
2018,05,26,12,07,13.50
2018,05,26,12,08,13.50
2018,05,26,12,09,13.50
2018,05,26,12,10,13.50
2018,05,26,12,11,13.50
2018,05,26,12,12,13.50
2018,05,26,12,13,13.50
2018,05,26,12,14,13.40
2018,05,26,12,15,13.40
2018,05,26,12,16,13.40
2018,05,26,12,17,13.40
2018,05,26,12,18,13.40
2018,05,26,12,19,13.40
2018,05,26,12,20,13.50
2018,05,26,12,21,13.50
2018,05,26,12,22,13.50
2018,05,26,12,23,13.40
2018,05,26,12,24,13.40
2018,05,26,12,25,13.30
2018,05,26,12,26,13.30
2018,05,26,12,27,13.40
2018,05,26,12,28,13.40
2018,05,26,12,29,13.50
2018,05,26,12,30,13.50
2018,05,26,12,31,13.50
2018,05,26,12,32,13.40
2018,05,26,12,33,13.30
2018,05,26,12,34,13.30
2018,05,26,12,35,13.30
2018,05,26,12,36,13.20
2018,05,26,12,37,13.20
2018,05,26,12,38,13.30
2018,05,26,12,39,13.30
2018,05,26,12,40,13.40
2018,05,26,12,41,13.40
2018,05,26,12,42,13.40
2018,05,26,12,43,13.50
2018,05,26,12,44,13.50
2018,05,26,12,45,13.50
2018,05,26,12,46,13.60
2018,05,26,12,47,13.60
2018,05,26,12,48,13.60
2018,05,26,12,49,13.50
2018,05,26,12,50,13.50
2018,05,26,12,51,13.50
2018,05,26,12,52,13.50
2018,05,26,12,53,13.50
2018,05,26,12,54,13.50
2018,05,26,12,55,13.60
2018,05,26,12,56,13.60
2018,05,26,12,57,13.50
2018,05,26,12,58,13.50
2018,05,26,12,59,13.50
2018,05,26,13,00,13.50
2018,05,26,13,01,13.50
2018,05,26,13,02,13.50
2018,05,26,13,03,13.40
2018,05,26,13,04,13.40
2018,05,26,13,05,13.40
2018,05,26,13,06,13.40
2018,05,26,13,07,13.40
2018,05,26,13,08,13.50
2018,05,26,13,09,13.50
2018,05,26,13,10,13.50
2018,05,26,13,11,13.50
2018,05,26,13,12,13.40
2018,05,26,13,13,13.50
2018,05,26,13,14,13.50
2018,05,26,13,15,13.60
2018,05,26,13,16,13.60
2018,05,26,13,17,13.60
2018,05,26,13,18,13.60
2018,05,26,13,19,13.60
2018,05,26,13,20,13.60
2018,05,26,13,21,13.60
2018,05,26,13,22,13.60
2018,05,26,13,23,13.60
2018,05,26,13,24,13.60
2018,05,26,13,25,13.60
2018,05,26,13,26,13.60
2018,05,26,13,27,13.50
2018,05,26,13,28,13.40
2018,05,26,13,29,13.40
2018,05,26,13,30,13.40
2018,05,26,13,31,13.40
2018,05,26,13,32,13.40
2018,05,26,13,33,13.50
2018,05,26,13,34,13.50
2018,05,26,13,35,13.50
2018,05,26,13,36,13.50
2018,05,26,13,37,13.60
2018,05,26,13,38,13.60
2018,05,26,13,39,13.70
2018,05,26,13,40,13.80
2018,05,26,13,41,13.80
2018,05,26,13,42,13.90
2018,05,26,13,43,14.00
2018,05,26,13,44,14.10
2018,05,26,13,45,14.10
2018,05,26,13,46,14.10
2018,05,26,13,47,14.10
2018,05,26,13,48,14.10
2018,05,26,13,49,14.10
2018,05,26,13,50,14.10
2018,05,26,13,51,14.10
2018,05,26,13,52,14.10
2018,05,26,13,53,14.10
2018,05,26,13,54,14.10
2018,05,26,13,55,14.10
2018,05,26,13,56,14.10
2018,05,26,13,57,14.10
2018,05,26,13,58,14.10
2018,05,26,13,59,14.10
2018,05,26,14,00,14.20
2018,05,26,14,01,14.20
2018,05,26,14,02,14.20
2018,05,26,14,03,14.10
2018,05,26,14,04,14.10
2018,05,26,14,05,14.10
2018,05,26,14,06,14.10
2018,05,26,14,07,14.10
2018,05,26,14,08,14.10
2018,05,26,14,09,14.10
2018,05,26,14,10,14.10
2018,05,26,14,11,14.10
2018,05,26,14,12,14.10
2018,05,26,14,13,14.10
2018,05,26,14,14,14.00
2018,05,26,14,15,14.00
2018,05,26,14,16,13.90
2018,05,26,14,17,13.90
2018,05,26,14,18,13.90
2018,05,26,14,19,13.90
2018,05,26,14,20,13.90
2018,05,26,14,21,14.00
2018,05,26,14,22,14.10
2018,05,26,14,23,14.10
2018,05,26,14,24,14.10
2018,05,26,14,25,14.20
2018,05,26,14,26,14.20
2018,05,26,14,27,14.20
2018,05,26,14,28,14.20
2018,05,26,14,29,14.10
2018,05,26,14,30,14.10
2018,05,26,14,31,14.10
2018,05,26,14,32,14.00
2018,05,26,14,33,13.90
2018,05,26,14,34,13.90
2018,05,26,14,35,13.90
2018,05,26,14,36,13.90
2018,05,26,14,37,13.90
2018,05,26,14,38,13.90
2018,05,26,14,39,13.90
2018,05,26,14,40,13.90
2018,05,26,14,41,13.80
2018,05,26,14,42,13.70
2018,05,26,14,43,13.70
2018,05,26,14,44,13.70
2018,05,26,14,45,13.80
2018,05,26,14,46,13.80
2018,05,26,14,47,13.80
2018,05,26,14,48,13.90
2018,05,26,14,49,13.90
2018,05,26,14,50,13.90
2018,05,26,14,51,13.90
2018,05,26,14,52,13.80
2018,05,26,14,53,13.80
2018,05,26,14,54,13.80
2018,05,26,14,55,13.80
2018,05,26,14,56,13.80
2018,05,26,14,57,13.80
2018,05,26,14,58,13.80
2018,05,26,14,59,13.70
2018,05,26,15,00,13.70
2018,05,26,15,01,13.60
2018,05,26,15,02,13.70
2018,05,26,15,03,13.70
2018,05,26,15,04,13.70
2018,05,26,15,05,13.70
2018,05,26,15,06,13.60
2018,05,26,15,07,13.60
2018,05,26,15,08,13.60
2018,05,26,15,09,13.60
2018,05,26,15,10,13.60
2018,05,26,15,11,13.60
2018,05,26,15,12,13.50
2018,05,26,15,13,13.50
2018,05,26,15,14,13.60
2018,05,26,15,15,13.60
2018,05,26,15,16,13.60
2018,05,26,15,17,13.60
2018,05,26,15,18,13.60
2018,05,26,15,19,13.60
2018,05,26,15,20,13.60
2018,05,26,15,21,13.60
2018,05,26,15,22,13.60
2018,05,26,15,23,13.60
2018,05,26,15,24,13.70
2018,05,26,15,25,13.60
2018,05,26,15,26,13.60
2018,05,26,15,27,13.50
2018,05,26,15,28,13.50
2018,05,26,15,29,13.40
2018,05,26,15,30,13.30
2018,05,26,15,31,13.40
2018,05,26,15,32,13.40
2018,05,26,15,33,13.50
2018,05,26,15,34,13.50
2018,05,26,15,35,13.50
2018,05,26,15,36,13.60
2018,05,26,15,37,13.60
2018,05,26,15,38,13.60
2018,05,26,15,39,13.70
2018,05,26,15,40,13.70
2018,05,26,15,41,13.70
2018,05,26,15,42,13.70
2018,05,26,15,43,13.70
2018,05,26,15,44,13.60
2018,05,26,15,45,13.60
2018,05,26,15,46,13.60
2018,05,26,15,47,13.50
2018,05,26,15,48,13.50
2018,05,26,15,49,13.40
2018,05,26,15,50,13.40
2018,05,26,15,51,13.40
2018,05,26,15,52,13.40
2018,05,26,15,53,13.40
2018,05,26,15,54,13.40
2018,05,26,15,55,13.40
2018,05,26,15,56,13.50
2018,05,26,15,57,13.60
2018,05,26,15,58,13.60
2018,05,26,15,59,13.60
2018,05,26,16,00,13.70
2018,05,26,16,01,13.70
2018,05,26,16,02,13.80
2018,05,26,16,03,13.80
2018,05,26,16,04,13.70
2018,05,26,16,05,13.70
2018,05,26,16,06,13.70
2018,05,26,16,07,13.70
2018,05,26,16,08,13.70
2018,05,26,16,09,13.70
2018,05,26,16,10,13.80
2018,05,26,16,11,13.80
2018,05,26,16,12,13.80
2018,05,26,16,13,13.80
2018,05,26,16,14,13.90
2018,05,26,16,15,13.90
2018,05,26,16,16,14.00
2018,05,26,16,17,14.00
2018,05,26,16,18,14.10
2018,05,26,16,19,14.10
2018,05,26,16,20,14.10
2018,05,26,16,21,14.10
2018,05,26,16,22,14.00
2018,05,26,16,23,14.00
2018,05,26,16,24,14.10
2018,05,26,16,25,14.00
2018,05,26,16,26,13.90
2018,05,26,16,27,13.90
2018,05,26,16,28,13.80
2018,05,26,16,29,13.80
2018,05,26,16,30,13.80
2018,05,26,16,31,13.80
2018,05,26,16,32,13.90
2018,05,26,16,33,13.90
2018,05,26,16,34,13.90
2018,05,26,16,35,14.00
2018,05,26,16,36,14.00
2018,05,26,16,37,14.10
2018,05,26,16,38,14.10
2018,05,26,16,39,14.20
2018,05,26,16,40,14.20
2018,05,26,16,41,14.20
2018,05,26,16,42,14.20
2018,05,26,16,43,14.20
2018,05,26,16,44,14.20
2018,05,26,16,45,14.10
2018,05,26,16,46,14.00
2018,05,26,16,47,14.00
2018,05,26,16,48,14.00
2018,05,26,16,49,14.00
2018,05,26,16,50,14.00
2018,05,26,16,51,13.90
2018,05,26,16,52,13.90
2018,05,26,16,53,13.90
2018,05,26,16,54,13.90
2018,05,26,16,55,13.90
2018,05,26,16,56,14.00
2018,05,26,16,57,13.90
2018,05,26,16,58,13.90
2018,05,26,16,59,13.90
2018,05,26,17,00,13.90
2018,05,26,17,01,13.90
2018,05,26,17,02,13.90
2018,05,26,17,03,13.90
2018,05,26,17,04,13.80
2018,05,26,17,05,13.90
2018,05,26,17,06,13.90
2018,05,26,17,07,13.90
2018,05,26,17,08,13.90
2018,05,26,17,09,13.90
2018,05,26,17,10,13.90
2018,05,26,17,11,13.90
2018,05,26,17,12,13.90
2018,05,26,17,13,13.90
2018,05,26,17,14,13.90
2018,05,26,17,15,13.90
2018,05,26,17,16,13.80
2018,05,26,17,17,13.80
2018,05,26,17,18,13.80
2018,05,26,17,19,13.80
2018,05,26,17,20,13.80
2018,05,26,17,21,13.80
2018,05,26,17,22,13.80
2018,05,26,17,23,13.80
2018,05,26,17,24,13.80
2018,05,26,17,25,13.80
2018,05,26,17,26,13.80
2018,05,26,17,27,13.80
2018,05,26,17,28,13.80
2018,05,26,17,29,13.80
2018,05,26,17,30,13.80
2018,05,26,17,31,13.80
2018,05,26,17,32,13.80
2018,05,26,17,33,13.70
2018,05,26,17,34,13.70
2018,05,26,17,35,13.60
2018,05,26,17,36,13.60
2018,05,26,17,37,13.60
2018,05,26,17,38,13.50
2018,05,26,17,39,13.40
2018,05,26,17,40,13.40
2018,05,26,17,41,13.40
2018,05,26,17,42,13.40
2018,05,26,17,43,13.30
2018,05,26,17,44,13.30
2018,05,26,17,45,13.30
2018,05,26,17,46,13.30
2018,05,26,17,47,13.40
2018,05,26,17,48,13.40
2018,05,26,17,49,13.30
2018,05,26,17,50,13.30
2018,05,26,17,51,13.20
2018,05,26,17,52,13.20
2018,05,26,17,53,13.20
2018,05,26,17,54,13.20
2018,05,26,17,55,13.20
2018,05,26,17,56,13.20
2018,05,26,17,57,13.20
2018,05,26,17,58,13.20
2018,05,26,17,59,13.20
2018,05,26,18,00,13.20
2018,05,26,18,01,13.20
2018,05,26,18,02,13.30
2018,05,26,18,03,13.30
2018,05,26,18,04,13.30
2018,05,26,18,05,13.40
2018,05,26,18,06,13.40
2018,05,26,18,07,13.40
2018,05,26,18,08,13.40
2018,05,26,18,09,13.30
2018,05,26,18,10,13.30
2018,05,26,18,11,13.30
2018,05,26,18,12,13.30
2018,05,26,18,13,13.30
2018,05,26,18,14,13.30
2018,05,26,18,15,13.30
2018,05,26,18,16,13.30
2018,05,26,18,17,13.30
2018,05,26,18,18,13.30
2018,05,26,18,19,13.40
2018,05,26,18,20,13.40
2018,05,26,18,21,13.40
2018,05,26,18,22,13.40
2018,05,26,18,23,13.40
2018,05,26,18,24,13.40
2018,05,26,18,25,13.40
2018,05,26,18,26,13.40
2018,05,26,18,27,13.40
2018,05,26,18,28,13.40
2018,05,26,18,29,13.40
2018,05,26,18,30,13.50
2018,05,26,18,31,13.60
2018,05,26,18,32,13.60
2018,05,26,18,33,13.60
2018,05,26,18,34,13.60
2018,05,26,18,35,13.60
2018,05,26,18,36,13.60
2018,05,26,18,37,13.60
2018,05,26,18,38,13.70
2018,05,26,18,39,13.80
2018,05,26,18,40,13.80
2018,05,26,18,41,13.80
2018,05,26,18,42,13.90
2018,05,26,18,43,13.90
2018,05,26,18,44,13.80
2018,05,26,18,45,13.80
2018,05,26,18,46,13.80
2018,05,26,18,47,13.80
2018,05,26,18,48,13.70
2018,05,26,18,49,13.70
2018,05,26,18,50,13.80
2018,05,26,18,51,13.80
2018,05,26,18,52,13.80
2018,05,26,18,53,13.80
2018,05,26,18,54,13.70
2018,05,26,18,55,13.60
2018,05,26,18,56,13.50
2018,05,26,18,57,13.40
2018,05,26,18,58,13.40
2018,05,26,18,59,13.40
2018,05,26,19,00,13.40
2018,05,26,19,01,13.40
2018,05,26,19,02,13.40
2018,05,26,19,03,13.40
2018,05,26,19,04,13.30
2018,05,26,19,05,13.30
2018,05,26,19,06,13.30
2018,05,26,19,07,13.30
2018,05,26,19,08,13.30
2018,05,26,19,09,13.30
2018,05,26,19,10,13.30
2018,05,26,19,11,13.30
2018,05,26,19,12,13.30
2018,05,26,19,13,13.20
2018,05,26,19,14,13.20
2018,05,26,19,15,13.20
2018,05,26,19,16,13.20
2018,05,26,19,17,13.20
2018,05,26,19,18,13.20
2018,05,26,19,19,13.20
2018,05,26,19,20,13.20
2018,05,26,19,21,13.30
2018,05,26,19,22,13.30
2018,05,26,19,23,13.20
2018,05,26,19,24,13.20
2018,05,26,19,25,13.20
2018,05,26,19,26,13.20
2018,05,26,19,27,13.20
2018,05,26,19,28,13.20
2018,05,26,19,29,13.20
2018,05,26,19,30,13.20
2018,05,26,19,31,13.10
2018,05,26,19,32,13.10
2018,05,26,19,33,13.00
2018,05,26,19,34,13.00
2018,05,26,19,35,12.90
2018,05,26,19,36,12.90
2018,05,26,19,37,12.90
2018,05,26,19,38,12.80
2018,05,26,19,39,12.80
2018,05,26,19,40,12.80
2018,05,26,19,41,12.80
2018,05,26,19,42,12.80
2018,05,26,19,43,12.70
2018,05,26,19,44,12.70
2018,05,26,19,45,12.70
2018,05,26,19,46,12.80
2018,05,26,19,47,12.80
2018,05,26,19,48,12.80
2018,05,26,19,49,12.80
2018,05,26,19,50,12.80
2018,05,26,19,51,12.70
2018,05,26,19,52,12.70
2018,05,26,19,53,12.70
2018,05,26,19,54,12.70
2018,05,26,19,55,12.70
2018,05,26,19,56,12.70
2018,05,26,19,57,12.70
2018,05,26,19,58,12.80
2018,05,26,19,59,12.80
2018,05,26,20,00,12.80
2018,05,26,20,01,12.80
2018,05,26,20,02,12.80
2018,05,26,20,03,12.80
2018,05,26,20,04,12.80
2018,05,26,20,05,12.80
2018,05,26,20,06,12.80
2018,05,26,20,07,12.80
2018,05,26,20,08,12.80
2018,05,26,20,09,12.80
2018,05,26,20,10,12.80
2018,05,26,20,11,12.80
2018,05,26,20,12,12.80
